Simultaneous Nadir Overpasses (SNOs) Predictions

Prediction of SNOs between GOES-17 and TERRA Satellite Orbit:

Table of predicted SNOs for the next 14.0 days since TLE Epoch: 11/20/2021
Index Date Time (GOES-17) GOES-17 Lat,Lon TERRA Lat,Lon Distance(km) Time Diff (sec)
1 11/20/2021 19:34:32 -0.04,-137.22 -0.03,-137.09 14.65 80
2 11/22/2021 19:22:18 -0.03,-137.20 -0.66,-134.13 348.98 80
3 11/23/2021 07:43:42 0.03,-137.19 -0.41,-139.33 242.82 80
4 11/25/2021 07:28:48 0.02,-137.17 0.22,-136.37 91.13 80
5 11/25/2021 19:50:02 -0.02,-137.17 0.93,-141.52 495.23 80
6 11/27/2021 07:16:33 0.02,-137.14 0.79,-133.40 424.52 80
7 11/27/2021 19:37:48 -0.02,-137.14 0.30,-138.56 161.92 80
8 11/29/2021 19:28:14 -0.01,-137.11 -0.34,-135.61 170.90 80
9 11/30/2021 07:49:36 0.01,-137.09 -0.79,-140.79 421.18 80
10 12/02/2021 07:37:23 0.01,-137.05 -0.14,-137.84 89.33 80
